Regional Weather Roundup
Issued by NWS

Home | Current Version | Previous Version | Text Only | Print | Product List | Glossary Off
Versions: 1 2 3 4 5 6 7 8 9 10 11 12 13 14 15 16 17 18 19 20 21 22 23 24 25 26 27 28 29 30 31 32 33 34 35 36 37 38 39 40 41 42 43 44 45 46 47 48 49 50

176
ASUS43 KDMX 060001
RWRIA

WEATHER ROUNDUP FOR IOWA
NATIONAL WEATHER SERVICE DES MOINES IA
600 PM CST MON DEC 05 2016

NOTE: "FAIR" INDICATES FEW OR NO CLOUDS BELOW 12,000 FEET WITH NO
SIGNIFICANT WEATHER AND/OR OBSTRUCTIONS TO VISIBILITY.

* - THESE STATIONS ARE NOT NWS STATIONS...THUS NOT UNDER NWS
QUALITY CONTROL.  THEY ALSO DO NOT REPORT WEATHER SUCH
AS PRECIPITATION OR FOG.

IAZ001>003-012>014-020>022-031>034-043>046-060100-
   NORTHWEST IOWA

CITY           SKY/WX    TMP DP  RH WIND       PRES   REMARKS
CARROLL *      CLOUDY    45  39  81 S12       29.67R
CHEROKEE *     MOCLDY    42  37  83 SW8       29.65R
DENISON *      CLOUDY    45  37  76 S13G20    29.65R
LE MARS *      MOCLDY    43  36  75 SW13      29.66R
ORANGE CITY *  CLOUDY    41  37  87 SW14      29.64R
SHELDON *      MOCLDY    41  37  87 SW12      29.61R
SIOUX CITY     CLOUDY    44  37  76 W7        29.68R
6HR MIN TEMP:  44; 6HR MAX TEMP:  48;

SPENCER        PTCLDY    42  36  79 S22       29.63S
6HR MIN TEMP:  42; 6HR MAX TEMP:  47;

STORM LAKE *   CLOUDY    43  37  81 S14       29.65R
$$

IAZ055>058-069>071-079>083-090>094-060100-
   SOUTHWEST IOWA

CITY           SKY/WX    TMP DP  RH WIND       PRES   REMARKS
ATLANTIC *     CLEAR     41  36  81 S6        29.69R
AUDUBON *      MOCLDY    45  37  76 S7        29.69R
CLARINDA *       N/A     43  34  70 S7        29.72R
COUNCIL BLFS * CLOUDY    41  37  87 S9        29.68R
CRESTON *      CLEAR     41  34  75 SE16      29.71S
HARLAN  *      CLOUDY    45  37  76 S13       29.71R
LAMONI         CLEAR     41  35  79 SE13      29.73F
6HR MIN TEMP:  37; 6HR MAX TEMP:  48;

RED OAK *      PTCLDY    43  36  75 S9        29.70R
SHENANDOAH *   CLEAR     43  36  75 S9        29.70R
$$

IAZ047>049-059>061-072>074-084-060100-
   CENTRAL IOWA

CITY           SKY/WX    TMP DP  RH WIND       PRES   REMARKS
AMES           CLOUDY    42  37  82 SE14      29.72S
6HR MIN TEMP:  39; 6HR MAX TEMP:  47;

ANKENY *       PTCLDY    43 N/A N/A S13G21    29.75S
BOONE *        CLOUDY    41  36  81 S12       29.71R
CHARITON *       N/A     39  36  87 SE12      29.75F WCI  32
DES MOINES     MOCLDY    43  35  73 SE15      29.74S
6HR MIN TEMP:  43; 6HR MAX TEMP:  51;

GRINNELL*      CLEAR     35  33  94 SE13      29.79R WCI  26
KNOXVILLE *    CLEAR     39  34  81 SE10      29.76S WCI  32
MARSHALLTOWN   PTCLDY    36  35  96 SE22      29.75S WCI  25
6HR MIN TEMP:  34; 6HR MAX TEMP:  37;

NEWTON *       CLEAR     36  34  93 SE15G21   29.77R WCI  26
PELLA *        CLEAR     39  34  84 SE13      29.80R WCI  31
PERRY *          N/A     43  39  88 SE13      29.70R
$$

IAZ004>006-015-016-023>025-035-036-060100-
   NORTH CENTRAL IOWA

CITY           SKY/WX    TMP DP  RH WIND       PRES   REMARKS
ALGONA *       MIX PCPN  43  37  81 S18G28    29.66R
CLARION *      CLOUDY    37  37 100 SE17G24   29.69S WCI  28
ESTHERVILLE    PTCLDY    42  36  79 S18       29.62R
6HR MIN TEMP:  41; 6HR MAX TEMP:  44;

FORT DODGE *   CLOUDY    45  34  65 S15G26    29.68R
MASON CITY     CLOUDY    34  33  96 S21G29    29.71S WCI  22
6HR MIN TEMP:  34; 6HR MAX TEMP:  36;

WEBSTER CITY * CLOUDY    41  37  87 S18G25    29.68S
IOWA FALLS *     N/A     36  34  93 SE16      29.74R WCI  26
$$

IAZ007>011-017>019-026>030-037>042-050>054-066-060100-
   NORTHEAST IOWA

CITY           SKY/WX    TMP DP  RH WIND       PRES   REMARKS
CEDAR RAPIDS   CLOUDY    33  33 100 SE12      29.84R FOG     WCI  24
6HR MIN TEMP:  31; 6HR MAX TEMP:  33;

CHARLES CITY * CLOUDY    34  34 100 SE20G28   29.73F WCI  22
CLINTON *      CLOUDY    33  32  96 SE13      29.93R WCI  24
DECORAH *      CLOUDY    32  30  93 SE12G18   29.77F WCI  23
DUBUQUE        LGT SNOW  32  31  96 SE17      29.87F FOG     WCI  21
6HR MIN TEMP:  31; 6HR MAX TEMP:  32; 6HR PCP: TRACE;

MONTICELLO *   CLOUDY    34  32  93 SE15      29.86F FOG     WCI  24
OELWEIN *      CLOUDY    32  32 100 SE21      29.79S WCI  20
WATERLOO       CLOUDY    34  31  88 SE17      29.76F WCI  23
6HR MIN TEMP:  32; 6HR MAX TEMP:  34;

$$

IAZ064-065-067-068-078-060100-
   EAST CENTRAL IOWA

CITY           SKY/WX    TMP DP  RH WIND       PRES   REMARKS
DAVENPORT      CLOUDY    33  31  92 SE15      29.92R WCI  23
6HR MIN TEMP:  32; 6HR MAX TEMP:  35;

IOWA CITY      CLOUDY    34  32  92 SE13G22   29.88F WCI  25
6HR MIN TEMP:  33; 6HR MAX TEMP:  35;

MUSCATINE *    CLOUDY    36  32  87 SE7G16    29.92R WCI  30
QUAD CITIES    CLOUDY    35  31  85 SE8       29.93R FOG     WCI  29
6HR MIN TEMP:  34; 6HR MAX TEMP:  36;

$$

IAZ062-063-075>077-085>089-095>099-060100-
   SOUTHEAST IOWA

CITY           SKY/WX    TMP DP  RH WIND       PRES   REMARKS
BURLINGTON     CLOUDY    36  35  96 E7        29.88F WCI  30
6HR MIN TEMP:  33; 6HR MAX TEMP:  36;

FAIRFIELD *    CLOUDY    36  34  93 SE14      29.84F WCI  27
FORT MADISON * CLOUDY    37  36  93 SE6       29.88S WCI  33
KEOKUK *       PTCLDY    36  34  93 SE6       29.86S WCI  31
OSKALOOSA *      N/A     34  32  94 SE14      29.82S WCI  24
CENTERVILLE *  CLOUDY    37  36  93 SE12      29.81S WCI  30
OTTUMWA        MOCLDY    36  32  85 SE16      29.82S WCI  26
6HR MIN TEMP:  35; 6HR MAX TEMP:  44;

WASHINGTON *   CLOUDY    34  34 100 SE15      29.87F FOG     WCI  24
$$

ABBREVIATIONS USED IN REMARKS
   TC - TEMPERATURES IN CELSIUS
  WCI - WIND CHILL INDEX
   HX - HEAT INDEX
  VSB - VISIBILITY
$$





USA.gov is the U.S. government's official web portal to all federal, state and local government web resources and services.